| time (UTC) | temp C | wind direction | speed KPH | gust KPH | rain 1hr cm | rain 24hr cm | rain mn cm | humidity % | barometer mb |
| 20260905064113 | 25 | 358 | 0.0 | 0.0 | 0.00 | 0.00 | 0.00 | 88 | 1033.2 |
| 20260905063611 | 25 | 358 | 0.0 | 0.0 | 0.00 | 0.00 | 0.00 | 88 | 1033.4 |
| 20260905063107 | 25 | 358 | 0.0 | 0.0 | 0.00 | 0.00 | 0.00 | 88 | 1033.3 |
| 20260905062602 | 25 | 358 | 0.0 | 0.0 | 0.00 | 0.00 | 0.00 | 88 | 1033.5 |
| 20260905062056 | 25 | 358 | 0.0 | 0.0 | 0.00 | 0.00 | 0.00 | 87 | 1033.6 |
| 20260905061552 | 25 | 358 | 0.0 | 0.0 | 0.00 | 0.00 | 0.00 | 87 | 1033.3 |
| 20260905061051 | 25 | 358 | 0.0 | 0.0 | 0.00 | 0.00 | 0.00 | 86 | 1033.3 |
| 20260905060547 | 25 | 358 | 0.0 | 0.0 | 0.00 | 0.00 | 0.00 | 86 | 1033.4 |
| 20260905060043 | 25 | 358 | 0.0 | 0.0 | 0.00 | 0.00 | 0.00 | 85 | 1033.7 |
| 20260905055541 | 26 | 358 | 0.0 | 0.0 | 0.00 | 0.00 | 0.00 | 85 | 1033.6 |
| 20260905055036 | 26 | 358 | 0.0 | 0.0 | 0.00 | 0.00 | 0.00 | 85 | 1033.5 |
| 20260905054532 | 26 | 358 | 0.0 | 0.0 | 0.00 | 0.00 | 0.00 | 85 | 1033.6 |
| 20260905054027 | 25 | 0 | 0.0 | 0.0 | 0.00 | 0.00 | 0.00 | 85 | 1033.3 |
| 20260905053527 | 26 | 1 | 0.0 | 0.0 | 0.00 | 0.00 | 0.00 | 85 | 1033.5 |
| 20260905053023 | 26 | 1 | 0.0 | 0.0 | 0.00 | 0.00 | 0.00 | 85 | 1033.2 |
| 20260905052521 | 26 | 1 | 0.0 | 0.0 | 0.00 | 0.00 | 0.00 | 85 | 1033.5 |
| 20260905052016 | 26 | 1 | 0.0 | 0.0 | 0.00 | 0.00 | 0.00 | 85 | 1033.3 |
| 20260905051512 | 26 | 2 | 0.0 | 0.0 | 0.00 | 0.00 | 0.00 | 85 | 1033.4 |
| 20260905051003 | 26 | 2 | 0.0 | 0.0 | 0.00 | 0.00 | 0.00 | 86 | 1033.5 |
| 20260905050458 | 26 | 2 | 0.0 | 0.0 | 0.00 | 0.00 | 0.00 | 86 | 1033.6 |
| 20260905045954 | 26 | 2 | 0.0 | 0.0 | 0.00 | 0.00 | 0.00 | 86 | 1033.6 |
| 20260905045449 | 26 | 2 | 0.0 | 0.0 | 0.00 | 0.00 | 0.00 | 84 | 1033.3 |
| 20260905044944 | 26 | 1 | 0.0 | 0.0 | 0.00 | 0.00 | 0.00 | 84 | 1033.6 |
| 20260905044438 | 26 | 2 | 0.0 | 0.0 | 0.00 | 0.00 | 0.00 | 86 | 1033.7 |
| 20260905043933 | 26 | 2 | 0.0 | 0.0 | 0.00 | 0.00 | 0.00 | 85 | 1033.8 |
| 20260905043432 | 26 | 1 | 0.0 | 0.0 | 0.00 | 0.00 | 0.00 | 85 | 1033.6 |
| 20260905042927 | 26 | 20 | 0.0 | 0.0 | 0.00 | 0.00 | 0.00 | 86 | 1033.7 |
| 20260905042422 | 26 | 20 | 0.0 | 0.0 | 0.00 | 0.00 | 0.00 | 85 | 1033.6 |
| 20260905041917 | 26 | 20 | 0.0 | 0.0 | 0.00 | 0.00 | 0.00 | 84 | 1033.6 |
| 20260905041413 | 26 | 20 | 0.0 | 0.0 | 0.00 | 0.00 | 0.00 | 84 | 1033.5 |
| 20260905040912 | 26 | 20 | 0.0 | 0.0 | 0.00 | 0.00 | 0.00 | 84 | 1033.7 |
| 20260905040407 | 26 | 31 | 0.0 | 0.0 | 0.00 | 0.00 | 0.00 | 83 | 1033.7 |
| 20260905035906 | 26 | 31 | 0.0 | 0.0 | 0.00 | 0.00 | 0.00 | 83 | 1033.7 |
| 20260905035402 | 27 | 33 | 0.0 | 0.0 | 0.00 | 0.00 | 0.00 | 82 | 1033.6 |
| 20260905034858 | 27 | 33 | 0.0 | 0.0 | 0.00 | 0.00 | 0.00 | 81 | 1033.5 |
| 20260905034354 | 27 | 30 | 0.0 | 0.0 | 0.00 | 0.00 | 0.00 | 80 | 1033.5 |
| 20260905033852 | 27 | 11 | 0.0 | 0.0 | 0.00 | 0.00 | 0.00 | 79 | 1033.7 |
| 20260905033348 | 27 | 351 | 0.0 | 0.0 | 0.00 | 0.00 | 0.00 | 79 | 1033.4 |
| 20260905032847 | 27 | 1 | 0.0 | 0.0 | 0.00 | 0.00 | 0.00 | 79 | 1033.4 |
| 20260905032342 | 27 | 7 | 0.0 | 0.0 | 0.00 | 0.00 | 0.00 | 79 | 1033.7 |
| 20260905031837 | 27 | 7 | 0.0 | 0.0 | 0.00 | 0.00 | 0.00 | 78 | 1033.6 |
| 20260905031333 | 28 | 7 | 0.0 | 0.0 | 0.00 | 0.00 | 0.00 | 78 | 1033.5 |
| 20260905030828 | 28 | 7 | 0.0 | 0.0 | 0.00 | 0.00 | 0.00 | 76 | 1033.4 |
| 20260905030324 | 28 | 309 | 0.0 | 0.0 | 0.00 | 0.00 | 0.00 | 76 | 1033.7 |
| 20260905025823 | 28 | 5 | 0.0 | 0.0 | 0.00 | 0.00 | 0.00 | 75 | 1033.8 |
| 20260905025318 | 28 | 12 | 0.0 | 0.0 | 0.00 | 0.00 | 0.00 | 74 | 1033.9 |
| 20260905024815 | 29 | 12 | 0.0 | 0.0 | 0.00 | 0.00 | 0.00 | 73 | 1034.0 |
| 20260905024310 | 29 | 358 | 0.0 | 0.0 | 0.00 | 0.00 | 0.00 | 72 | 1034.0 |
| 20260905023805 | 29 | 5 | 0.0 | 0.0 | 0.00 | 0.00 | 0.00 | 72 | 1034.1 |
| 20260905023300 | 29 | 352 | 0.0 | 0.0 | 0.00 | 0.00 | 0.00 | 72 | 1034.3 |
| 20260905022759 | 29 | 47 | 0.0 | 0.0 | 0.00 | 0.00 | 0.00 | 72 | 1034.3 |
| 20260905022255 | 29 | 342 | 0.0 | 0.0 | 0.00 | 0.00 | 0.00 | 71 | 1033.9 |
| 20260905021755 | 29 | 349 | 0.0 | 0.0 | 0.00 | 0.00 | 0.00 | 71 | 1034.1 |
| 20260905021250 | 29 | 349 | 0.0 | 0.0 | 0.00 | 0.00 | 0.00 | 71 | 1034.1 |
| 20260905020744 | 30 | 349 | 0.0 | 0.0 | 0.00 | 0.00 | 0.00 | 70 | 1033.7 |
| 20260905020239 | 30 | 354 | 0.0 | 0.0 | 0.00 | 0.00 | 0.00 | 71 | 1033.7 |
| 20260905015738 | 29 | 355 | 0.0 | 0.0 | 0.00 | 0.00 | 0.00 | 71 | 1033.8 |
| 20260905015233 | 29 | 355 | 0.0 | 0.0 | 0.00 | 0.00 | 0.00 | 71 | 1033.8 |
| 20260905014732 | 29 | 356 | 0.0 | 0.0 | 0.00 | 0.00 | 0.00 | 71 | 1033.8 |
| 20260905014227 | 29 | 355 | 0.0 | 0.0 | 0.00 | 0.00 | 0.00 | 71 | 1033.6 |
| 20260905013723 | 29 | 355 | 0.0 | 0.0 | 0.00 | 0.00 | 0.00 | 70 | 1033.7 |
| 20260905013219 | 30 | 355 | 0.0 | 0.0 | 0.00 | 0.00 | 0.00 | 69 | 1033.6 |
| 20260905012714 | 30 | 355 | 0.0 | 0.0 | 0.00 | 0.00 | 0.00 | 68 | 1033.8 |
| 20260905012210 | 30 | 355 | 0.0 | 0.0 | 0.00 | 0.00 | 0.00 | 68 | 1033.5 |
| 20260905011706 | 30 | 355 | 0.0 | 0.0 | 0.00 | 0.00 | 0.00 | 67 | 1033.5 |
| 20260905011156 | 30 | 355 | 0.0 | 0.0 | 0.00 | 0.00 | 0.00 | 67 | 1033.4 |
| 20260905010656 | 30 | 355 | 0.0 | 0.0 | 0.00 | 0.00 | 0.00 | 66 | 1033.4 |
| 20260905010151 | 30 | 356 | 0.0 | 0.0 | 0.00 | 0.00 | 0.00 | 66 | 1033.3 |
| 20260905005648 | 31 | 356 | 0.0 | 0.0 | 0.00 | 0.00 | 0.00 | 65 | 1033.3 |
| 20260905005143 | 31 | 355 | 0.0 | 0.0 | 0.00 | 0.00 | 0.00 | 64 | 1033.2 |
| 20260905004637 | 31 | 355 | 0.0 | 0.0 | 0.00 | 0.00 | 0.00 | 64 | 1033.2 |
| 20260905004132 | 31 | 352 | 0.0 | 0.0 | 0.00 | 0.00 | 0.00 | 64 | 1033.3 |
| 20260905003628 | 31 | 6 | 0.0 | 0.0 | 0.00 | 0.00 | 0.00 | 63 | 1033.3 |
| 20260905003124 | 31 | 6 | 0.0 | 0.0 | 0.00 | 0.00 | 0.00 | 63 | 1033.5 |
| 20260905002619 | 31 | 358 | 0.0 | 0.0 | 0.00 | 0.00 | 0.00 | 62 | 1033.3 |
| 20260905002114 | 31 | 3 | 0.0 | 0.0 | 0.00 | 0.00 | 0.00 | 62 | 1033.3 |
| 20260905001609 | 31 | 4 | 0.0 | 0.0 | 0.00 | 0.00 | 0.00 | 61 | 1033.5 |
| 20260905001109 | 32 | 4 | 0.0 | 0.0 | 0.00 | 0.00 | 0.00 | 61 | 1033.3 |
| 20260905000604 | 32 | 3 | 0.0 | 0.0 | 0.00 | 0.00 | 0.00 | 60 | 1033.4 |
| 20260905000100 | 32 | 18 | 0.0 | 0.0 | 0.00 | 0.00 | 0.00 | 59 | 1033.3 |
| 20260904235600 | 32 | 17 | 0.0 | 0.0 | 0.00 | 0.00 | 0.00 | 59 | 1033.3 |
| 20260904235100 | 32 | 359 | 0.0 | 0.0 | 0.00 | 0.00 | 0.00 | 59 | 1033.4 |
| 20260904234554 | 32 | 353 | 0.0 | 0.0 | 0.00 | 0.00 | 0.00 | 59 | 1033.3 |
| 20260904234050 | 32 | 38 | 0.0 | 0.0 | 0.00 | 0.00 | 0.00 | 59 | 1033.4 |
| 20260904233545 | 32 | 6 | 0.0 | 0.0 | 0.00 | 0.00 | 0.00 | 59 | 1033.4 |
| 20260904233041 | 32 | 1 | 0.0 | 0.0 | 0.00 | 0.00 | 0.00 | 59 | 1033.5 |
| 20260904232538 | 32 | 11 | 0.0 | 0.0 | 0.00 | 0.00 | 0.00 | 59 | 1033.3 |
| 20260904232034 | 32 | 5 | 0.0 | 0.0 | 0.00 | 0.00 | 0.00 | 59 | 1033.2 |
| 20260904231529 | 33 | 23 | 0.0 | 0.0 | 0.00 | 0.00 | 0.00 | 59 | 1033.0 |
| 20260904231024 | 33 | 0 | 0.0 | 0.0 | 0.00 | 0.00 | 0.00 | 58 | 1032.9 |
| 20260904230523 | 33 | 8 | 0.0 | 0.0 | 0.00 | 0.00 | 0.00 | 58 | 1032.8 |
| 20260904230019 | 33 | 11 | 0.0 | 0.0 | 0.00 | 0.00 | 0.00 | 59 | 1033.0 |
| 20260904225517 | 33 | 31 | 0.0 | 0.0 | 0.00 | 0.00 | 0.00 | 58 | 1032.8 |
| 20260904225016 | 33 | 13 | 0.0 | 0.0 | 0.00 | 0.00 | 0.00 | 58 | 1032.7 |
| 20260904224511 | 33 | 23 | 0.0 | 0.0 | 0.00 | 0.00 | 0.00 | 57 | 1032.8 |
| 20260904224011 | 33 | 22 | 0.0 | 0.0 | 0.00 | 0.00 | 0.00 | 56 | 1032.9 |
| 20260904223510 | 33 | 21 | 0.0 | 0.0 | 0.00 | 0.00 | 0.00 | 56 | 1032.8 |
| 20260904223007 | 33 | 16 | 0.0 | 0.0 | 0.00 | 0.00 | 0.00 | 56 | 1032.9 |
| 20260904222502 | 33 | 4 | 0.0 | 0.0 | 0.00 | 0.00 | 0.00 | 58 | 1032.8 |
| 20260904221956 | 33 | 19 | 0.0 | 0.0 | 0.00 | 0.00 | 0.00 | 57 | 1032.7 |
| 20260904221451 | 33 | 172 | 0.0 | 0.0 | 0.00 | 0.00 | 0.00 | 58 | 1032.6 |
| 20260904220946 | 34 | 24 | 0.0 | 0.0 | 0.00 | 0.00 | 0.00 | 57 | 1032.7 |
| 20260904220446 | 34 | 20 | 0.0 | 0.0 | 0.00 | 0.00 | 0.00 | 55 | 1032.6 |
| 20260904215941 | 33 | 28 | 0.0 | 0.0 | 0.00 | 0.00 | 0.00 | 55 | 1032.4 |
| 20260904215436 | 33 | 358 | 0.0 | 0.0 | 0.00 | 0.00 | 0.00 | 58 | 1032.5 |
| 20260904214931 | 33 | 14 | 0.0 | 0.0 | 0.00 | 0.00 | 0.00 | 58 | 1032.5 |
| 20260904214427 | 34 | 49 | 0.0 | 0.0 | 0.00 | 0.00 | 0.00 | 55 | 1032.4 |
| 20260904213926 | 34 | 354 | 0.0 | 0.0 | 0.00 | 0.00 | 0.00 | 56 | 1032.7 |
| 20260904213415 | 34 | 19 | 0.0 | 0.0 | 0.00 | 0.00 | 0.00 | 56 | 1032.9 |
| 20260904212912 | 34 | 14 | 0.0 | 0.0 | 0.00 | 0.00 | 0.00 | 57 | 1032.6 |
| 20260904212410 | 34 | 143 | 0.0 | 1.6 | 0.00 | 0.00 | 0.00 | 55 | 1032.9 |
| 20260904211906 | 33 | 139 | 3.2 | 3.2 | 0.00 | 0.00 | 0.00 | 53 | 1032.8 |
| 20260904211401 | 34 | 29 | 0.0 | 0.0 | 0.00 | 0.00 | 0.00 | 56 | 1032.5 |
| 20260904210856 | 34 | 73 | 3.2 | 3.2 | 0.00 | 0.00 | 0.00 | 55 | 1032.7 |
| 20260904210356 | 34 | 6 | 1.6 | 3.2 | 0.00 | 0.00 | 0.00 | 59 | 1032.8 |
| 20260904205852 | 34 | 24 | 0.0 | 0.0 | 0.00 | 0.00 | 0.00 | 57 | 1032.5 |
| 20260904205347 | 34 | 349 | 1.6 | 1.6 | 0.00 | 0.00 | 0.00 | 57 | 1032.8 |
| 20260904204844 | 34 | 23 | 0.0 | 1.6 | 0.00 | 0.00 | 0.00 | 57 | 1032.9 |
| 20260904204340 | 34 | 27 | 0.0 | 0.0 | 0.00 | 0.00 | 0.00 | 54 | 1032.9 |
| 20260904203836 | 33 | 41 | 1.6 | 3.2 | 0.00 | 0.00 | 0.00 | 55 | 1032.9 |
| 20260904203332 | 33 | 23 | 0.0 | 0.0 | 0.00 | 0.00 | 0.00 | 57 | 1032.8 |
| 20260904202827 | 34 | 25 | 0.0 | 0.0 | 0.00 | 0.00 | 0.00 | 59 | 1033.0 |
| 20260904202323 | 34 | 329 | 3.2 | 4.8 | 0.00 | 0.00 | 0.00 | 58 | 1033.1 |
| 20260904201819 | 33 | 19 | 1.6 | 1.6 | 0.00 | 0.00 | 0.00 | 58 | 1033.1 |
| 20260904201319 | 35 | 28 | 0.0 | 0.0 | 0.00 | 0.00 | 0.00 | 59 | 1033.1 |
| 20260904200814 | 34 | 163 | 0.0 | 1.6 | 0.00 | 0.00 | 0.00 | 54 | 1033.5 |
| 20260904200308 | 34 | 34 | 0.0 | 1.6 | 0.00 | 0.00 | 0.00 | 55 | 1033.5 |
| 20260904195808 | 35 | 17 | 0.0 | 0.0 | 0.00 | 0.00 | 0.00 | 56 | 1033.6 |
| 20260904195306 | 34 | 19 | 1.6 | 1.6 | 0.00 | 0.00 | 0.00 | 55 | 1033.7 |
| 20260904194801 | 34 | 25 | 3.2 | 3.2 | 0.00 | 0.00 | 0.00 | 56 | 1033.6 |
| 20260904194300 | 34 | 100 | 1.6 | 1.6 | 0.00 | 0.00 | 0.00 | 54 | 1033.7 |
| 20260904193756 | 34 | 340 | 3.2 | 3.2 | 0.00 | 0.00 | 0.00 | 58 | 1033.9 |
| 20260904193251 | 34 | 38 | 0.0 | 1.6 | 0.00 | 0.00 | 0.00 | 59 | 1033.9 |
| 20260904192746 | 34 | 4 | 1.6 | 1.6 | 0.00 | 0.00 | 0.00 | 59 | 1034.0 |
| 20260904192242 | 34 | 17 | 0.0 | 1.6 | 0.00 | 0.00 | 0.00 | 59 | 1034.5 |
| 20260904191738 | 33 | 25 | 0.0 | 0.0 | 0.00 | 0.00 | 0.00 | 58 | 1034.3 |
| 20260904191235 | 35 | 40 | 0.0 | 0.0 | 0.00 | 0.00 | 0.00 | 59 | 1034.4 |
| 20260904190731 | 35 | 358 | 1.6 | 1.6 | 0.00 | 0.00 | 0.00 | 56 | 1034.4 |
| 20260904190226 | 35 | 186 | 4.8 | 4.8 | 0.00 | 0.00 | 0.00 | 56 | 1034.6 |
| 20260904185723 | 35 | 94 | 1.6 | 1.6 | 0.00 | 0.00 | 0.00 | 56 | 1035.0 |
| 20260904185222 | 33 | 19 | 0.0 | 0.0 | 0.00 | 0.00 | 0.00 | 58 | 1034.7 |
| 20260904184721 | 32 | 21 | 3.2 | 3.2 | 0.00 | 0.00 | 0.00 | 61 | 1034.7 |
| 20260904184217 | 32 | 13 | 0.0 | 0.0 | 0.00 | 0.00 | 0.00 | 62 | 1034.6 |
| 20260904183712 | 33 | 5 | 0.0 | 1.6 | 0.00 | 0.00 | 0.00 | 61 | 1035.0 |
| 20260904183207 | 34 | 332 | 3.2 | 3.2 | 0.00 | 0.00 | 0.00 | 59 | 1035.1 |
| 20260904182703 | 32 | 69 | 1.6 | 3.2 | 0.00 | 0.00 | 0.00 | 59 | 1035.1 |
| 20260904182157 | 32 | 359 | 0.0 | 1.6 | 0.00 | 0.00 | 0.00 | 67 | 1035.3 |
| 20260904181653 | 33 | 10 | 0.0 | 0.0 | 0.00 | 0.00 | 0.00 | 65 | 1035.2 |
| 20260904181152 | 33 | 254 | 1.6 | 1.6 | 0.00 | 0.00 | 0.00 | 63 | 1035.2 |
| 20260904180648 | 32 | 5 | 0.0 | 0.0 | 0.00 | 0.00 | 0.00 | 66 | 1035.3 |
| 20260904180143 | 32 | 6 | 0.0 | 1.6 | 0.00 | 0.00 | 0.00 | 65 | 1035.4 |
| 20260904175642 | 32 | 17 | 0.0 | 1.6 | 0.00 | 0.00 | 0.00 | 64 | 1035.5 |
| 20260904175141 | 33 | 20 | 0.0 | 0.0 | 0.00 | 0.00 | 0.00 | 63 | 1035.6 |
| 20260904174636 | 33 | 359 | 0.0 | 0.0 | 0.00 | 0.00 | 0.00 | 62 | 1035.6 |
| 20260904174132 | 33 | 95 | 1.6 | 1.6 | 0.00 | 0.00 | 0.00 | 60 | 1035.9 |
| 20260904173627 | 33 | 25 | 0.0 | 0.0 | 0.00 | 0.00 | 0.00 | 60 | 1035.8 |
| 20260904173123 | 32 | 102 | 1.6 | 1.6 | 0.00 | 0.00 | 0.00 | 62 | 1036.0 |
| 20260904172619 | 32 | 1 | 0.0 | 0.0 | 0.00 | 0.00 | 0.00 | 63 | 1035.9 |
| 20260904172118 | 32 | 22 | 0.0 | 0.0 | 0.00 | 0.00 | 0.00 | 63 | 1036.0 |
| 20260904171613 | 32 | 6 | 0.0 | 0.0 | 0.00 | 0.00 | 0.00 | 66 | 1036.1 |
| 20260904171109 | 32 | 3 | 0.0 | 0.0 | 0.00 | 0.00 | 0.00 | 64 | 1036.2 |
| 20260904170604 | 32 | 79 | 1.6 | 3.2 | 0.00 | 0.00 | 0.00 | 61 | 1036.3 |
| 20260904170100 | 32 | 20 | 0.0 | 0.0 | 0.00 | 0.00 | 0.00 | 63 | 1036.1 |
| 20260904165559 | 33 | 17 | 0.0 | 0.0 | 0.00 | 0.00 | 0.00 | 61 | 1036.0 |
| 20260904165058 | 33 | 15 | 0.0 | 0.0 | 0.00 | 0.00 | 0.00 | 63 | 1036.1 |
| 20260904164553 | 32 | 165 | 1.6 | 3.2 | 0.00 | 0.00 | 0.00 | 64 | 1036.1 |
| 20260904164049 | 32 | 15 | 0.0 | 0.0 | 0.00 | 0.00 | 0.00 | 65 | 1036.3 |
| 20260904163549 | 32 | 24 | 0.0 | 0.0 | 0.00 | 0.00 | 0.00 | 65 | 1036.2 |
| 20260904163044 | 32 | 305 | 0.0 | 0.0 | 0.00 | 0.00 | 0.00 | 64 | 1036.4 |
| 20260904162538 | 32 | 358 | 0.0 | 0.0 | 0.00 | 0.00 | 0.00 | 66 | 1036.7 |
| 20260904162034 | 32 | 15 | 0.0 | 0.0 | 0.00 | 0.00 | 0.00 | 65 | 1036.7 |
| 20260904161529 | 32 | 15 | 0.0 | 0.0 | 0.00 | 0.00 | 0.00 | 64 | 1036.6 |
| 20260904161024 | 32 | 357 | 0.0 | 0.0 | 0.00 | 0.00 | 0.00 | 63 | 1036.7 |
| 20260904160519 | 32 | 2 | 0.0 | 0.0 | 0.00 | 0.00 | 0.00 | 63 | 1036.7 |
| 20260904160015 | 32 | 358 | 0.0 | 0.0 | 0.00 | 0.00 | 0.00 | 64 | 1036.9 |
| 20260904155509 | 32 | 8 | 0.0 | 0.0 | 0.00 | 0.00 | 0.00 | 65 | 1036.8 |
| 20260904155009 | 32 | 171 | 0.0 | 1.6 | 0.00 | 0.00 | 0.00 | 66 | 1036.7 |
| 20260904154502 | 31 | 9 | 0.0 | 0.0 | 0.00 | 0.00 | 0.00 | 66 | 1036.7 |
| 20260904153957 | 31 | 18 | 0.0 | 0.0 | 0.00 | 0.00 | 0.00 | 68 | 1036.6 |
| 20260904153452 | 31 | 25 | 0.0 | 0.0 | 0.00 | 0.00 | 0.00 | 68 | 1036.8 |
| 20260904152949 | 31 | 143 | 1.6 | 1.6 | 0.00 | 0.00 | 0.00 | 67 | 1036.6 |
| 20260904152444 | 31 | 51 | 0.0 | 0.0 | 0.00 | 0.00 | 0.00 | 66 | 1036.6 |
| 20260904151943 | 31 | 357 | 0.0 | 0.0 | 0.00 | 0.00 | 0.00 | 72 | 1036.5 |
| 20260904151439 | 30 | 357 | 0.0 | 0.0 | 0.00 | 0.00 | 0.00 | 72 | 1036.8 |
| 20260904150933 | 30 | 13 | 0.0 | 0.0 | 0.00 | 0.00 | 0.00 | 71 | 1036.5 |
| 20260904150428 | 30 | 13 | 0.0 | 0.0 | 0.00 | 0.00 | 0.00 | 73 | 1036.5 |
| 20260904145926 | 30 | 35 | 0.0 | 0.0 | 0.00 | 0.00 | 0.00 | 74 | 1036.7 |
| 20260904145423 | 30 | 309 | 0.0 | 0.0 | 0.00 | 0.00 | 0.00 | 73 | 1036.7 |
| 20260904144918 | 31 | 15 | 0.0 | 0.0 | 0.00 | 0.00 | 0.00 | 71 | 1036.3 |
| 20260904144414 | 31 | 357 | 0.0 | 0.0 | 0.00 | 0.00 | 0.00 | 69 | 1036.6 |
| 20260904143909 | 31 | 16 | 0.0 | 0.0 | 0.00 | 0.00 | 0.00 | 70 | 1036.4 |
| 20260904143406 | 31 | 8 | 0.0 | 0.0 | 0.00 | 0.00 | 0.00 | 70 | 1036.4 |
| 20260904142902 | 30 | 9 | 0.0 | 0.0 | 0.00 | 0.00 | 0.00 | 73 | 1036.3 |
| 20260904142357 | 30 | 354 | 0.0 | 0.0 | 0.00 | 0.00 | 0.00 | 79 | 1036.4 |
| 20260904141851 | 29 | 21 | 0.0 | 0.0 | 0.00 | 0.00 | 0.00 | 79 | 1036.3 |
| 20260904141347 | 28 | 22 | 0.0 | 0.0 | 0.00 | 0.00 | 0.00 | 80 | 1036.5 |
| 20260904140843 | 28 | 31 | 0.0 | 0.0 | 0.00 | 0.00 | 0.00 | 80 | 1036.6 |
| 20260904140337 | 27 | 336 | 0.0 | 0.0 | 0.00 | 0.00 | 0.00 | 83 | 1036.5 |
| 20260904135837 | 27 | 83 | 0.0 | 0.0 | 0.00 | 0.00 | 0.00 | 83 | 1036.5 |
| 20260904135332 | 27 | 59 | 0.0 | 0.0 | 0.00 | 0.00 | 0.00 | 83 | 1036.6 |
| 20260904134828 | 27 | 2 | 0.0 | 0.0 | 0.00 | 0.00 | 0.00 | 83 | 1036.6 |
| 20260904134328 | 27 | 319 | 0.0 | 0.0 | 0.00 | 0.00 | 0.00 | 83 | 1036.5 |
| 20260904133822 | 27 | 9 | 0.0 | 0.0 | 0.00 | 0.00 | 0.00 | 85 | 1036.4 |
| 20260904133318 | 27 | 350 | 0.0 | 0.0 | 0.00 | 0.00 | 0.00 | 86 | 1036.6 |
| 20260904132817 | 26 | 357 | 0.0 | 0.0 | 0.00 | 0.00 | 0.00 | 86 | 1036.3 |
| 20260904132313 | 26 | 6 | 0.0 | 0.0 | 0.00 | 0.00 | 0.00 | 88 | 1036.3 |
| 20260904131812 | 26 | 4 | 0.0 | 0.0 | 0.00 | 0.00 | 0.00 | 89 | 1036.3 |
| 20260904131308 | 26 | 354 | 0.0 | 0.0 | 0.00 | 0.00 | 0.00 | 91 | 1036.2 |
| 20260904130808 | 25 | 184 | 0.0 | 0.0 | 0.00 | 0.00 | 0.00 | 92 | 1036.5 |
| 20260904130308 | 25 | 34 | 0.0 | 0.0 | 0.00 | 0.00 | 0.00 | 93 | 1036.3 |
| 20260904125803 | 25 | 38 | 0.0 | 0.0 | 0.00 | 0.00 | 0.00 | 94 | 1036.4 |
| 20260904125258 | 25 | 282 | 0.0 | 0.0 | 0.00 | 0.00 | 0.00 | 94 | 1036.2 |
| 20260904124753 | 25 | 332 | 0.0 | 0.0 | 0.00 | 0.00 | 0.00 | 94 | 1036.2 |
| 20260904124250 | 25 | 36 | 0.0 | 0.0 | 0.00 | 0.00 | 0.00 | 95 | 1035.9 |
| 20260904123750 | 25 | 72 | 0.0 | 0.0 | 0.00 | 0.00 | 0.00 | 95 | 1036.0 |
| 20260904123245 | 25 | 359 | 0.0 | 0.0 | 0.00 | 0.00 | 0.00 | 95 | 1036.0 |
| 20260904122740 | 25 | 40 | 0.0 | 0.0 | 0.00 | 0.00 | 0.00 | 95 | 1035.8 |
| 20260904122234 | 25 | 44 | 0.0 | 0.0 | 0.00 | 0.00 | 0.00 | 95 | 1035.8 |
| 20260904121730 | 25 | 70 | 0.0 | 0.0 | 0.00 | 0.00 | 0.00 | 96 | 1035.9 |
| 20260904121225 | 24 | 37 | 0.0 | 0.0 | 0.00 | 0.00 | 0.00 | 96 | 1035.8 |
| 20260904120722 | 24 | 1 | 0.0 | 0.0 | 0.00 | 0.00 | 0.00 | 96 | 1035.9 |
| 20260904120217 | 24 | 1 | 0.0 | 0.0 | 0.00 | 0.00 | 0.00 | 96 | 1035.6 |
| 20260904115712 | 24 | 3 | 0.0 | 0.0 | 0.00 | 0.00 | 0.00 | 96 | 1035.8 |
| 20260904115212 | 24 | 82 | 0.0 | 0.0 | 0.00 | 0.00 | 0.00 | 96 | 1035.6 |
| 20260904114707 | 24 | 75 | 0.0 | 0.0 | 0.00 | 0.00 | 0.00 | 96 | 1035.4 |
| 20260904114201 | 24 | 4 | 0.0 | 0.0 | 0.00 | 0.00 | 0.00 | 96 | 1035.4 |
| 20260904113656 | 24 | 17 | 0.0 | 0.0 | 0.00 | 0.00 | 0.00 | 96 | 1035.5 |
| 20260904113155 | 24 | 33 | 0.0 | 0.0 | 0.00 | 0.00 | 0.00 | 96 | 1035.5 |
| 20260904112650 | 24 | 81 | 0.0 | 0.0 | 0.00 | 0.00 | 0.00 | 96 | 1035.3 |
| 20260904112146 | 24 | 110 | 0.0 | 0.0 | 0.00 | 0.00 | 0.00 | 96 | 1035.5 |
| 20260904111642 | 24 | 84 | 0.0 | 0.0 | 0.00 | 0.00 | 0.00 | 96 | 1035.4 |
| 20260904111137 | 24 | 280 | 0.0 | 0.0 | 0.00 | 0.00 | 0.00 | 96 | 1035.2 |
| 20260904110632 | 24 | 351 | 0.0 | 0.0 | 0.00 | 0.00 | 0.00 | 96 | 1035.3 |
| 20260904110127 | 24 | 352 | 0.0 | 0.0 | 0.00 | 0.00 | 0.00 | 96 | 1035.0 |
| 20260904105626 | 24 | 352 | 0.0 | 0.0 | 0.00 | 0.00 | 0.00 | 95 | 1035.2 |
| 20260904105121 | 24 | 352 | 0.0 | 0.0 | 0.00 | 0.00 | 0.00 | 95 | 1035.1 |
| 20260904104617 | 25 | 352 | 0.0 | 0.0 | 0.00 | 0.00 | 0.00 | 95 | 1035.2 |
| 20260904104112 | 25 | 352 | 0.0 | 0.0 | 0.00 | 0.00 | 0.00 | 95 | 1034.8 |
| 20260904103608 | 25 | 352 | 0.0 | 0.0 | 0.00 | 0.00 | 0.00 | 95 | 1035.1 |
| 20260904103104 | 25 | 352 | 0.0 | 0.0 | 0.00 | 0.00 | 0.00 | 95 | 1035.2 |
| 20260904102600 | 25 | 353 | 0.0 | 0.0 | 0.00 | 0.00 | 0.00 | 95 | 1035.1 |
| 20260904102055 | 25 | 352 | 0.0 | 0.0 | 0.00 | 0.00 | 0.00 | 95 | 1035.0 |
| 20260904101551 | 25 | 353 | 0.0 | 0.0 | 0.00 | 0.00 | 0.00 | 95 | 1034.8 |
| 20260904101047 | 25 | 353 | 0.0 | 0.0 | 0.00 | 0.00 | 0.00 | 94 | 1034.7 |
| 20260904100542 | 25 | 353 | 0.0 | 0.0 | 0.00 | 0.00 | 0.00 | 94 | 1035.0 |
| 20260904100031 | 25 | 353 | 0.0 | 0.0 | 0.00 | 0.00 | 0.00 | 94 | 1035.0 |
| 20260904095526 | 25 | 352 | 0.0 | 0.0 | 0.00 | 0.00 | 0.00 | 94 | 1034.6 |
| 20260904095022 | 25 | 350 | 0.0 | 0.0 | 0.00 | 0.00 | 0.00 | 94 | 1034.6 |
| 20260904094516 | 25 | 12 | 0.0 | 0.0 | 0.00 | 0.00 | 0.00 | 94 | 1034.7 |
| 20260904094011 | 25 | 1 | 0.0 | 0.0 | 0.00 | 0.00 | 0.00 | 94 | 1035.1 |
| 20260904093508 | 25 | 1 | 0.0 | 0.0 | 0.00 | 0.00 | 0.00 | 94 | 1034.7 |
| 20260904093003 | 25 | 1 | 0.0 | 0.0 | 0.00 | 0.00 | 0.00 | 94 | 1034.6 |
| 20260904092459 | 25 | 1 | 0.0 | 0.0 | 0.00 | 0.00 | 0.00 | 94 | 1034.7 |
| 20260904091955 | 25 | 0 | 0.0 | 0.0 | 0.00 | 0.00 | 0.00 | 93 | 1034.8 |
| 20260904091450 | 25 | 6 | 0.0 | 0.0 | 0.00 | 0.00 | 0.00 | 94 | 1034.7 |
| 20260904090944 | 25 | 32 | 0.0 | 0.0 | 0.00 | 0.00 | 0.00 | 94 | 1034.6 |
| 20260904090440 | 25 | 113 | 0.0 | 0.0 | 0.00 | 0.00 | 0.00 | 94 | 1034.6 |
| 20260904085935 | 25 | 66 | 0.0 | 0.0 | 0.00 | 0.00 | 0.00 | 93 | 1034.4 |
| 20260904085431 | 25 | 355 | 0.0 | 0.0 | 0.00 | 0.00 | 0.00 | 93 | 1034.7 |
| 20260904084925 | 25 | 355 | 0.0 | 0.0 | 0.00 | 0.00 | 0.00 | 93 | 1034.6 |
| 20260904084422 | 25 | 354 | 0.0 | 0.0 | 0.00 | 0.00 | 0.00 | 92 | 1034.7 |
| 20260904083917 | 25 | 354 | 0.0 | 0.0 | 0.00 | 0.00 | 0.00 | 92 | 1034.6 |
| 20260904083413 | 25 | 355 | 0.0 | 0.0 | 0.00 | 0.00 | 0.00 | 92 | 1034.8 |
| 20260904082909 | 25 | 355 | 0.0 | 0.0 | 0.00 | 0.00 | 0.00 | 93 | 1034.5 |
| 20260904082409 | 25 | 355 | 0.0 | 0.0 | 0.00 | 0.00 | 0.00 | 93 | 1034.6 |
| 20260904081903 | 25 | 355 | 0.0 | 0.0 | 0.00 | 0.00 | 0.00 | 93 | 1034.7 |
| 20260904081359 | 25 | 358 | 0.0 | 0.0 | 0.00 | 0.00 | 0.00 | 93 | 1034.8 |
| 20260904080855 | 25 | 343 | 0.0 | 0.0 | 0.00 | 0.00 | 0.00 | 93 | 1034.8 |
| 20260904080350 | 26 | 358 | 0.0 | 0.0 | 0.00 | 0.00 | 0.00 | 92 | 1034.7 |
| 20260904075846 | 25 | 356 | 0.0 | 0.0 | 0.00 | 0.00 | 0.00 | 91 | 1034.7 |
| 20260904075342 | 25 | 359 | 0.0 | 0.0 | 0.00 | 0.00 | 0.00 | 92 | 1034.7 |
| 20260904074840 | 26 | 1 | 0.0 | 0.0 | 0.00 | 0.00 | 0.00 | 92 | 1034.7 |
| 20260904074335 | 26 | 1 | 0.0 | 0.0 | 0.00 | 0.00 | 0.00 | 92 | 1034.7 |
| 20260904073831 | 25 | 25 | 0.0 | 0.0 | 0.00 | 0.00 | 0.00 | 92 | 1034.8 |
| 20260904073326 | 26 | 64 | 0.0 | 0.0 | 0.00 | 0.00 | 0.00 | 92 | 1034.7 |
| 20260904072822 | 26 | 5 | 0.0 | 0.0 | 0.00 | 0.00 | 0.00 | 92 | 1034.8 |
| 20260904072321 | 26 | 5 | 0.0 | 0.0 | 0.00 | 0.00 | 0.00 | 92 | 1035.2 |
| 20260904071817 | 26 | 2 | 0.0 | 0.0 | 0.00 | 0.00 | 0.00 | 92 | 1034.8 |
| 20260904071312 | 26 | 349 | 0.0 | 0.0 | 0.00 | 0.00 | 0.00 | 91 | 1034.7 |
| 20260904070807 | 26 | 349 | 0.0 | 0.0 | 0.00 | 0.00 | 0.00 | 91 | 1034.7 |
| 20260904070306 | 26 | 347 | 0.0 | 0.0 | 0.00 | 0.00 | 0.00 | 91 | 1034.6 |
| 20260904065801 | 26 | 59 | 0.0 | 0.0 | 0.00 | 0.00 | 0.00 | 91 | 1034.5 |
| 20260904065258 | 26 | 62 | 0.0 | 0.0 | 0.00 | 0.00 | 0.00 | 91 | 1034.8 |
| 20260904064757 | 26 | 78 | 0.0 | 0.0 | 0.00 | 0.00 | 0.00 | 90 | 1034.7 |